owner,sensor,date,latitude,longitude,vertical_datum,mass_concentration_of_oxygen_in_sea_water,qcFlag 
DISL,ioos:station:DISL:CATA:1,2009-12-01T00:00:00Z,30.3085,-88.1395,2.802,8.67,1111122 
DISL,ioos:station:DISL:CATA:1,2009-12-01T00:30:00Z,30.3085,-88.1395,2.817,8.49,1111122 
DISL,ioos:station:DISL:CATA:1,2009-12-01T01:00:00Z,30.3085,-88.1395,2.779,10.14,1111122 
DISL,ioos:station:DISL:CATA:1,2009-12-01T01:30:00Z,30.3085,-88.1395,2.759,10.35,1111122 
DISL,ioos:station:DISL:CATA:1,2009-12-01T02:00:00Z,30.3085,-88.1395,2.73,10.04,1111122 
DISL,ioos:station:DISL:CATA:1,2009-12-01T02:30:00Z,30.3085,-88.1395,2.703,9.82,1111122 
DISL,ioos:station:DISL:CATA:1,2009-12-01T03:00:00Z,30.3085,-88.1395,2.695,9.5,1111122 
DISL,ioos:station:DISL:CATA:1,2009-12-01T03:30:00Z,30.3085,-88.1395,2.672,9.12,1111122 
DISL,ioos:station:DISL:CATA:1,2009-12-01T04:00:00Z,30.3085,-88.1395,2.653,8.97,1111122 
DISL,ioos:station:DISL:CATA:1,2009-12-01T04:30:00Z,30.3085,-88.1395,2.61,9.24,1111122 
DISL,ioos:station:DISL:CATA:1,2009-12-01T05:00:00Z,30.3085,-88.1395,2.602,9.33,1111122 
DISL,ioos:station:DISL:CATA:1,2009-12-01T05:30:00Z,30.3085,-88.1395,2.578,9.33,1111122 
DISL,ioos:station:DISL:CATA:1,2009-12-01T06:00:00Z,30.3085,-88.1395,2.535,9.23,1111122 
DISL,ioos:station:DISL:CATA:1,2009-12-01T06:30:00Z,30.3085,-88.1395,2.512,9.29,1111122 
DISL,ioos:station:DISL:CATA:1,2009-12-01T07:00:00Z,30.3085,-88.1395,2.45,9.27,1111122 
DISL,ioos:station:DISL:CATA:1,2009-12-01T07:30:00Z,30.3085,-88.1395,2.404,9.25,1111122 
DISL,ioos:station:DISL:CATA:1,2009-12-01T08:00:00Z,30.3085,-88.1395,2.371,9.11,1111122 
DISL,ioos:station:DISL:CATA:1,2009-12-01T08:30:00Z,30.3085,-88.1395,2.315,9.12,1111122 
DISL,ioos:station:DISL:CATA:1,2009-12-01T09:00:00Z,30.3085,-88.1395,2.266,9.05,1111122 
DISL,ioos:station:DISL:CATA:1,2009-12-01T09:30:00Z,30.3085,-88.1395,2.236,9.07,1111122 
DISL,ioos:station:DISL:CATA:1,2009-12-01T10:00:00Z,30.3085,-88.1395,2.219,9.11,1111122 
DISL,ioos:station:DISL:CATA:1,2009-12-01T10:30:00Z,30.3085,-88.1395,2.201,9.17,1111122 
DISL,ioos:station:DISL:CATA:1,2009-12-01T11:00:00Z,30.3085,-88.1395,2.178,9.23,1111122 
DISL,ioos:station:DISL:CATA:1,2009-12-01T11:30:00Z,30.3085,-88.1395,2.177,9.26,1111122 
DISL,ioos:station:DISL:CATA:1,2009-12-01T12:00:00Z,30.3085,-88.1395,2.184,9.27,1111122 
DISL,ioos:station:DISL:CATA:1,2009-12-01T12:30:00Z,30.3085,-88.1395,2.189,9.32,1111122 
DISL,ioos:station:DISL:CATA:1,2009-12-01T13:00:00Z,30.3085,-88.1395,2.197,9.38,1111122 
DISL,ioos:station:DISL:CATA:1,2009-12-01T13:30:00Z,30.3085,-88.1395,2.213,9.44,1111122 
DISL,ioos:station:DISL:CATA:1,2009-12-01T14:00:00Z,30.3085,-88.1395,2.201,9.44,1111122 
DISL,ioos:station:DISL:CATA:1,2009-12-01T14:30:00Z,30.3085,-88.1395,2.202,9.36,1111122 
DISL,ioos:station:DISL:CATA:1,2009-12-01T15:00:00Z,30.3085,-88.1395,2.217,9.35,1111122 
DISL,ioos:station:DISL:CATA:1,2009-12-01T15:30:00Z,30.3085,-88.1395,2.24,9.28,1111122 
DISL,ioos:station:DISL:CATA:1,2009-12-01T16:00:00Z,30.3085,-88.1395,2.259,9.25,1111122 
DISL,ioos:station:DISL:CATA:1,2009-12-01T16:30:00Z,30.3085,-88.1395,2.319,9.07,1111122 
DISL,ioos:station:DISL:CATA:1,2009-12-01T17:00:00Z,30.3085,-88.1395,2.374,8.92,1111122 
DISL,ioos:station:DISL:CATA:1,2009-12-01T17:30:00Z,30.3085,-88.1395,2.406,9.23,1111122 
DISL,ioos:station:DISL:CATA:1,2009-12-01T18:00:00Z,30.3085,-88.1395,2.41,9.3,1111122 
DISL,ioos:station:DISL:CATA:1,2009-12-01T18:30:00Z,30.3085,-88.1395,2.422,9.4,1111122 
DISL,ioos:station:DISL:CATA:1,2009-12-01T19:00:00Z,30.3085,-88.1395,2.46,9.44,1111122 
DISL,ioos:station:DISL:CATA:1,2009-12-01T19:30:00Z,30.3085,-88.1395,2.495,9.43,1111122 
DISL,ioos:station:DISL:CATA:1,2009-12-01T20:00:00Z,30.3085,-88.1395,2.529,9.4,1111122 
DISL,ioos:station:DISL:CATA:1,2009-12-01T20:30:00Z,30.3085,-88.1395,2.526,9.38,1111122 
DISL,ioos:station:DISL:CATA:1,2009-12-01T21:00:00Z,30.3085,-88.1395,2.541,9.42,1111122 
DISL,ioos:station:DISL:CATA:1,2009-12-01T21:30:00Z,30.3085,-88.1395,2.611,9.45,1111122 
DISL,ioos:station:DISL:CATA:1,2009-12-01T22:00:00Z,30.3085,-88.1395,2.643,9.3,1111122 
DISL,ioos:station:DISL:CATA:1,2009-12-01T22:30:00Z,30.3085,-88.1395,2.695,9.49,1111122 
DISL,ioos:station:DISL:CATA:1,2009-12-01T23:00:00Z,30.3085,-88.1395,2.722,9.6,1111122 
DISL,ioos:station:DISL:CATA:1,2009-12-01T23:30:00Z,30.3085,-88.1395,2.715,9.65,1111122 
DISL,ioos:station:DISL:CATA:1,2009-12-02T00:00:00Z,30.3085,-88.1395,2.736,9.47,1111122 
DISL,ioos:station:DISL:CATA:1,2009-12-02T00:30:00Z,30.3085,-88.1395,2.793,9.33,1111122 
DISL,ioos:station:DISL:CATA:1,2009-12-02T01:00:00Z,30.3085,-88.1395,2.833,9.3,1111122 
DISL,ioos:station:DISL:CATA:1,2009-12-02T01:30:00Z,30.3085,-88.1395,2.903,9.21,1111122 
DISL,ioos:station:DISL:CATA:1,2009-12-02T02:00:00Z,30.3085,-88.1395,2.965,9.17,1111122 
DISL,ioos:station:DISL:CATA:1,2009-12-02T02:30:00Z,30.3085,-88.1395,3.017,9.18,1111122 
DISL,ioos:station:DISL:CATA:1,2009-12-02T03:00:00Z,30.3085,-88.1395,3.083,9.11,1111122 
DISL,ioos:station:DISL:CATA:1,2009-12-02T03:30:00Z,30.3085,-88.1395,3.027,9.15,1111122 
DISL,ioos:station:DISL:CATA:1,2009-12-02T04:00:00Z,30.3085,-88.1395,3.004,9.16,1111122 
DISL,ioos:station:DISL:CATA:1,2009-12-02T04:30:00Z,30.3085,-88.1395,3.215,9.12,1111122 
DISL,ioos:station:DISL:CATA:1,2009-12-02T05:00:00Z,30.3085,-88.1395,3.2,8.67,1111122 
DISL,ioos:station:DISL:CATA:1,2009-12-02T05:30:00Z,30.3085,-88.1395,3.004,8.39,1111122 
DISL,ioos:station:DISL:CATA:1,2009-12-02T06:00:00Z,30.3085,-88.1395,2.922,8.48,1111122 
DISL,ioos:station:DISL:CATA:1,2009-12-02T06:30:00Z,30.3085,-88.1395,2.804,8.75,1111122 
DISL,ioos:station:DISL:CATA:1,2009-12-02T07:00:00Z,30.3085,-88.1395,2.802,9.12,1111122 
DISL,ioos:station:DISL:CATA:1,2009-12-02T07:30:00Z,30.3085,-88.1395,2.797,8.85,1111122 
DISL,ioos:station:DISL:CATA:1,2009-12-02T08:00:00Z,30.3085,-88.1395,2.714,8.95,1111122 
DISL,ioos:station:DISL:CATA:1,2009-12-02T08:30:00Z,30.3085,-88.1395,2.666,8.83,1111122 
DISL,ioos:station:DISL:CATA:1,2009-12-02T09:00:00Z,30.3085,-88.1395,2.663,8.74,1111122 
DISL,ioos:station:DISL:CATA:1,2009-12-02T09:30:00Z,30.3085,-88.1395,2.625,8.09,1111122 
DISL,ioos:station:DISL:CATA:1,2009-12-02T10:00:00Z,30.3085,-88.1395,2.637,7.74,1111122 
DISL,ioos:station:DISL:CATA:1,2009-12-02T10:30:00Z,30.3085,-88.1395,2.649,7.33,1111122 
DISL,ioos:station:DISL:CATA:1,2009-12-02T11:00:00Z,30.3085,-88.1395,2.602,6.91,1111122 
DISL,ioos:station:DISL:CATA:1,2009-12-02T11:30:00Z,30.3085,-88.1395,2.563,6.71,1111122 
DISL,ioos:station:DISL:CATA:1,2009-12-02T12:00:00Z,30.3085,-88.1395,2.533,7.3,1111122 
DISL,ioos:station:DISL:CATA:1,2009-12-02T12:30:00Z,30.3085,-88.1395,2.512,7.35,1111122 
DISL,ioos:station:DISL:CATA:1,2009-12-02T13:00:00Z,30.3085,-88.1395,2.432,7.27,1111122 
DISL,ioos:station:DISL:CATA:1,2009-12-02T13:30:00Z,30.3085,-88.1395,2.382,7.47,1111122 
DISL,ioos:station:DISL:CATA:1,2009-12-02T14:00:00Z,30.3085,-88.1395,2.371,8.01,1111122 
DISL,ioos:station:DISL:CATA:1,2009-12-02T14:30:00Z,30.3085,-88.1395,2.413,8.3,1111122 
DISL,ioos:station:DISL:CATA:1,2009-12-02T15:00:00Z,30.3085,-88.1395,2.438,7.9,1111122 
DISL,ioos:station:DISL:CATA:1,2009-12-02T15:30:00Z,30.3085,-88.1395,2.494,8.72,1111122 
DISL,ioos:station:DISL:CATA:1,2009-12-02T16:00:00Z,30.3085,-88.1395,2.486,8.74,1111122 
DISL,ioos:station:DISL:CATA:1,2009-12-02T16:30:00Z,30.3085,-88.1395,2.47,7.98,1111122 
DISL,ioos:station:DISL:CATA:1,2009-12-02T17:00:00Z,30.3085,-88.1395,2.427,7.86,1111122 
DISL,ioos:station:DISL:CATA:1,2009-12-02T17:30:00Z,30.3085,-88.1395,2.473,8.15,1111122 
DISL,ioos:station:DISL:CATA:1,2009-12-02T18:00:00Z,30.3085,-88.1395,2.533,8.37,1111122 
DISL,ioos:station:DISL:CATA:1,2009-12-02T18:30:00Z,30.3085,-88.1395,2.527,8.49,1111122 
DISL,ioos:station:DISL:CATA:1,2009-12-02T19:00:00Z,30.3085,-88.1395,2.555,8.63,1111122 
DISL,ioos:station:DISL:CATA:1,2009-12-02T19:30:00Z,30.3085,-88.1395,2.563,8.69,1111122 
DISL,ioos:station:DISL:CATA:1,2009-12-02T20:00:00Z,30.3085,-88.1395,2.576,8.66,1111122 
DISL,ioos:station:DISL:CATA:1,2009-12-02T20:30:00Z,30.3085,-88.1395,2.621,8.69,1111122 
DISL,ioos:station:DISL:CATA:1,2009-12-02T21:00:00Z,30.3085,-88.1395,2.673,8.72,1111122 
DISL,ioos:station:DISL:CATA:1,2009-12-02T21:30:00Z,30.3085,-88.1395,2.709,8.8,1111122 
DISL,ioos:station:DISL:CATA:1,2009-12-02T22:00:00Z,30.3085,-88.1395,2.774,8.84,1111122 
DISL,ioos:station:DISL:CATA:1,2009-12-02T22:30:00Z,30.3085,-88.1395,2.777,8.82,1111122 
DISL,ioos:station:DISL:CATA:1,2009-12-02T23:00:00Z,30.3085,-88.1395,2.771,8.78,1111122 
DISL,ioos:station:DISL:CATA:1,2009-12-02T23:30:00Z,30.3085,-88.1395,2.81,8.69,1111122 
DISL,ioos:station:DISL:CATA:1,2009-12-03T00:00:00Z,30.3085,-88.1395,2.898,8.59,1111122 
DISL,ioos:station:DISL:CATA:1,2009-12-03T00:30:00Z,30.3085,-88.1395,2.942,8.55,1111122 
DISL,ioos:station:DISL:CATA:1,2009-12-03T01:00:00Z,30.3085,-88.1395,2.954,8.5,1111122 
DISL,ioos:station:DISL:CATA:1,2009-12-03T01:30:00Z,30.3085,-88.1395,2.952,8.48,1111122 
DISL,ioos:station:DISL:CATA:1,2009-12-03T02:00:00Z,30.3085,-88.1395,2.949,8.46,1111122 
DISL,ioos:station:DISL:CATA:1,2009-12-03T02:30:00Z,30.3085,-88.1395,2.958,8.45,1111122 
DISL,ioos:station:DISL:CATA:1,2009-12-03T03:00:00Z,30.3085,-88.1395,2.943,8.41,1111122 
DISL,ioos:station:DISL:CATA:1,2009-12-03T03:30:00Z,30.3085,-88.1395,2.916,8.34,1111122 
DISL,ioos:station:DISL:CATA:1,2009-12-03T04:00:00Z,30.3085,-88.1395,2.93,7.94,1111122 
DISL,ioos:station:DISL:CATA:1,2009-12-03T04:30:00Z,30.3085,-88.1395,2.921,7.43,1111122 
DISL,ioos:station:DISL:CATA:1,2009-12-03T05:00:00Z,30.3085,-88.1395,2.905,7.04,1111122 
DISL,ioos:station:DISL:CATA:1,2009-12-03T05:30:00Z,30.3085,-88.1395,2.897,6.82,1111122 
DISL,ioos:station:DISL:CATA:1,2009-12-03T06:00:00Z,30.3085,-88.1395,2.847,6.63,1111122 
DISL,ioos:station:DISL:CATA:1,2009-12-03T06:30:00Z,30.3085,-88.1395,2.812,6.58,1111122 
DISL,ioos:station:DISL:CATA:1,2009-12-03T07:00:00Z,30.3085,-88.1395,2.769,6.67,1111122 
DISL,ioos:station:DISL:CATA:1,2009-12-03T07:30:00Z,30.3085,-88.1395,2.743,7.39,1111122 
DISL,ioos:station:DISL:CATA:1,2009-12-03T08:00:00Z,30.3085,-88.1395,2.678,7.84,1111122 
DISL,ioos:station:DISL:CATA:1,2009-12-03T08:30:00Z,30.3085,-88.1395,2.63,7.94,1111122 
DISL,ioos:station:DISL:CATA:1,2009-12-03T09:00:00Z,30.3085,-88.1395,2.582,8.17,1111122 
DISL,ioos:station:DISL:CATA:1,2009-12-03T09:30:00Z,30.3085,-88.1395,2.544,8.44,1111122 
DISL,ioos:station:DISL:CATA:1,2009-12-03T10:00:00Z,30.3085,-88.1395,2.491,8.53,1111122 
DISL,ioos:station:DISL:CATA:1,2009-12-03T10:30:00Z,30.3085,-88.1395,2.409,8.6,1111122 
DISL,ioos:station:DISL:CATA:1,2009-12-03T11:00:00Z,30.3085,-88.1395,2.361,8.72,1111122 
DISL,ioos:station:DISL:CATA:1,2009-12-03T11:30:00Z,30.3085,-88.1395,2.318,8.77,1111122 
DISL,ioos:station:DISL:CATA:1,2009-12-03T12:00:00Z,30.3085,-88.1395,2.296,8.83,1111122 
DISL,ioos:station:DISL:CATA:1,2009-12-03T12:30:00Z,30.3085,-88.1395,2.268,8.84,1111122 
DISL,ioos:station:DISL:CATA:1,2009-12-03T13:00:00Z,30.3085,-88.1395,2.245,8.86,1111122 
DISL,ioos:station:DISL:CATA:1,2009-12-03T13:30:00Z,30.3085,-88.1395,2.218,8.83,1111122 
DISL,ioos:station:DISL:CATA:1,2009-12-03T14:00:00Z,30.3085,-88.1395,2.204,8.75,1111122 
DISL,ioos:station:DISL:CATA:1,2009-12-03T14:30:00Z,30.3085,-88.1395,2.221,8.77,1111122 
DISL,ioos:station:DISL:CATA:1,2009-12-03T15:00:00Z,30.3085,-88.1395,2.214,8.81,1111122 
DISL,ioos:station:DISL:CATA:1,2009-12-03T15:30:00Z,30.3085,-88.1395,2.225,8.83,1111122 
DISL,ioos:station:DISL:CATA:1,2009-12-03T16:00:00Z,30.3085,-88.1395,2.212,8.85,1111122 
DISL,ioos:station:DISL:CATA:1,2009-12-03T16:30:00Z,30.3085,-88.1395,2.216,8.94,1111122 
DISL,ioos:station:DISL:CATA:1,2009-12-03T17:00:00Z,30.3085,-88.1395,2.232,9.01,1111122 
DISL,ioos:station:DISL:CATA:1,2009-12-03T17:30:00Z,30.3085,-88.1395,2.247,9.09,1111122 
DISL,ioos:station:DISL:CATA:1,2009-12-03T18:00:00Z,30.3085,-88.1395,2.299,9.09,1111122 
DISL,ioos:station:DISL:CATA:1,2009-12-03T18:30:00Z,30.3085,-88.1395,2.349,9.11,1111122 
DISL,ioos:station:DISL:CATA:1,2009-12-03T19:00:00Z,30.3085,-88.1395,2.368,9.27,1111122 
DISL,ioos:station:DISL:CATA:1,2009-12-03T19:30:00Z,30.3085,-88.1395,2.384,9.44,1111122 
DISL,ioos:station:DISL:CATA:1,2009-12-03T20:00:00Z,30.3085,-88.1395,2.394,9.45,1111122 
DISL,ioos:station:DISL:CATA:1,2009-12-03T20:30:00Z,30.3085,-88.1395,2.437,9.44,1111122 
DISL,ioos:station:DISL:CATA:1,2009-12-03T21:00:00Z,30.3085,-88.1395,2.485,9.36,1111122 
DISL,ioos:station:DISL:CATA:1,2009-12-03T21:30:00Z,30.3085,-88.1395,2.514,9.35,1111122 
DISL,ioos:station:DISL:CATA:1,2009-12-03T22:00:00Z,30.3085,-88.1395,2.557,9.26,1111122 
DISL,ioos:station:DISL:CATA:1,2009-12-03T22:30:00Z,30.3085,-88.1395,2.587,9.2,1111122 
DISL,ioos:station:DISL:CATA:1,2009-12-03T23:00:00Z,30.3085,-88.1395,2.615,9.15,1111122 
DISL,ioos:station:DISL:CATA:1,2009-12-03T23:30:00Z,30.3085,-88.1395,2.644,9.05,1111122 
DISL,ioos:station:DISL:CATA:1,2009-12-04T00:00:00Z,30.3085,-88.1395,2.693,9.08,1111122 
DISL,ioos:station:DISL:CATA:1,2009-12-04T00:30:00Z,30.3085,-88.1395,2.748,9.06,1111122 
DISL,ioos:station:DISL:CATA:1,2009-12-04T01:00:00Z,30.3085,-88.1395,2.787,9.03,1111122 
DISL,ioos:station:DISL:CATA:1,2009-12-04T01:30:00Z,30.3085,-88.1395,2.84,8.81,1111122 
DISL,ioos:station:DISL:CATA:1,2009-12-04T02:00:00Z,30.3085,-88.1395,2.87,8.53,1111122 
DISL,ioos:station:DISL:CATA:1,2009-12-04T02:30:00Z,30.3085,-88.1395,2.895,8.41,1111122 
DISL,ioos:station:DISL:CATA:1,2009-12-04T03:00:00Z,30.3085,-88.1395,2.906,8.14,1111122 
DISL,ioos:station:DISL:CATA:1,2009-12-04T03:30:00Z,30.3085,-88.1395,2.926,8.01,1111122 
DISL,ioos:station:DISL:CATA:1,2009-12-04T04:00:00Z,30.3085,-88.1395,2.922,7.97,1111122 
DISL,ioos:station:DISL:CATA:1,2009-12-04T04:30:00Z,30.3085,-88.1395,2.925,7.87,1111122 
DISL,ioos:station:DISL:CATA:1,2009-12-04T05:00:00Z,30.3085,-88.1395,2.912,7.92,1111122 
DISL,ioos:station:DISL:CATA:1,2009-12-04T05:30:00Z,30.3085,-88.1395,2.891,7.65,1111122 
DISL,ioos:station:DISL:CATA:1,2009-12-04T06:00:00Z,30.3085,-88.1395,2.871,7.5,1111122 
DISL,ioos:station:DISL:CATA:1,2009-12-04T06:30:00Z,30.3085,-88.1395,2.844,7.25,1111122 
DISL,ioos:station:DISL:CATA:1,2009-12-04T07:00:00Z,30.3085,-88.1395,2.805,7.1,1111122 
DISL,ioos:station:DISL:CATA:1,2009-12-04T07:30:00Z,30.3085,-88.1395,2.773,7.22,1111122 
DISL,ioos:station:DISL:CATA:1,2009-12-04T08:00:00Z,30.3085,-88.1395,2.751,8.43,1111122 
DISL,ioos:station:DISL:CATA:1,2009-12-04T08:30:00Z,30.3085,-88.1395,2.705,8.94,1111122 
DISL,ioos:station:DISL:CATA:1,2009-12-04T09:00:00Z,30.3085,-88.1395,2.651,9.23,1111122 
DISL,ioos:station:DISL:CATA:1,2009-12-04T09:30:00Z,30.3085,-88.1395,2.586,9.22,1111122 
DISL,ioos:station:DISL:CATA:1,2009-12-04T10:00:00Z,30.3085,-88.1395,2.527,9.12,1111122 
DISL,ioos:station:DISL:CATA:1,2009-12-04T10:30:00Z,30.3085,-88.1395,2.471,9.07,1111122 
DISL,ioos:station:DISL:CATA:1,2009-12-04T11:00:00Z,30.3085,-88.1395,2.419,9.11,1111122 
DISL,ioos:station:DISL:CATA:1,2009-12-04T11:30:00Z,30.3085,-88.1395,2.373,9.16,1111122 
DISL,ioos:station:DISL:CATA:1,2009-12-04T12:00:00Z,30.3085,-88.1395,2.322,9.18,1111122 
DISL,ioos:station:DISL:CATA:1,2009-12-04T12:30:00Z,30.3085,-88.1395,2.287,9.13,1111122 
DISL,ioos:station:DISL:CATA:1,2009-12-04T13:00:00Z,30.3085,-88.1395,2.28,9.13,1111122 
DISL,ioos:station:DISL:CATA:1,2009-12-04T13:30:00Z,30.3085,-88.1395,2.235,9.01,1111122 
DISL,ioos:station:DISL:CATA:1,2009-12-04T14:00:00Z,30.3085,-88.1395,2.212,9.15,1111122 
DISL,ioos:station:DISL:CATA:1,2009-12-04T14:30:00Z,30.3085,-88.1395,2.188,9.22,1111122 
DISL,ioos:station:DISL:CATA:1,2009-12-04T15:00:00Z,30.3085,-88.1395,2.174,9.23,1111122 
DISL,ioos:station:DISL:CATA:1,2009-12-04T15:30:00Z,30.3085,-88.1395,2.195,9.29,1111122 
DISL,ioos:station:DISL:CATA:1,2009-12-04T16:00:00Z,30.3085,-88.1395,2.179,9.32,1111122 
DISL,ioos:station:DISL:CATA:1,2009-12-04T16:30:00Z,30.3085,-88.1395,2.157,9.31,1111122 
DISL,ioos:station:DISL:CATA:1,2009-12-04T17:00:00Z,30.3085,-88.1395,2.162,9.33,1111122 
DISL,ioos:station:DISL:CATA:1,2009-12-04T17:30:00Z,30.3085,-88.1395,2.154,9.32,1111122 
DISL,ioos:station:DISL:CATA:1,2009-12-04T18:00:00Z,30.3085,-88.1395,2.166,9.32,1111122 
DISL,ioos:station:DISL:CATA:1,2009-12-04T18:30:00Z,30.3085,-88.1395,2.185,9.42,1111122 
DISL,ioos:station:DISL:CATA:1,2009-12-04T19:00:00Z,30.3085,-88.1395,2.176,9.42,1111122 
DISL,ioos:station:DISL:CATA:1,2009-12-04T19:30:00Z,30.3085,-88.1395,2.228,9.37,1111122 
DISL,ioos:station:DISL:CATA:1,2009-12-04T20:00:00Z,30.3085,-88.1395,2.255,9.28,1111122 
DISL,ioos:station:DISL:CATA:1,2009-12-04T20:30:00Z,30.3085,-88.1395,2.27,9.57,1111122 
DISL,ioos:station:DISL:CATA:1,2009-12-04T21:00:00Z,30.3085,-88.1395,2.316,9.76,1111122 
DISL,ioos:station:DISL:CATA:1,2009-12-04T21:30:00Z,30.3085,-88.1395,2.371,9.87,1111122 
DISL,ioos:station:DISL:CATA:1,2009-12-04T22:00:00Z,30.3085,-88.1395,2.405,9.8,1111122 
DISL,ioos:station:DISL:CATA:1,2009-12-04T22:30:00Z,30.3085,-88.1395,2.435,9.77,1111122 
DISL,ioos:station:DISL:CATA:1,2009-12-04T23:00:00Z,30.3085,-88.1395,2.466,9.7,1111122 
DISL,ioos:station:DISL:CATA:1,2009-12-04T23:30:00Z,30.3085,-88.1395,2.521,9.65,1111122 
DISL,ioos:station:DISL:CATA:1,2009-12-05T00:00:00Z,30.3085,-88.1395,2.558,9.6,1111122 
DISL,ioos:station:DISL:CATA:1,2009-12-05T00:30:00Z,30.3085,-88.1395,2.574,9.56,1111122 
DISL,ioos:station:DISL:CATA:1,2009-12-05T01:00:00Z,30.3085,-88.1395,2.632,9.53,1111122 
DISL,ioos:station:DISL:CATA:1,2009-12-05T01:30:00Z,30.3085,-88.1395,2.692,9.51,1111122 
DISL,ioos:station:DISL:CATA:1,2009-12-05T02:00:00Z,30.3085,-88.1395,2.712,8.86,1111122 
DISL,ioos:station:DISL:CATA:1,2009-12-05T02:30:00Z,30.3085,-88.1395,2.748,8.34,1111122 
DISL,ioos:station:DISL:CATA:1,2009-12-05T03:00:00Z,30.3085,-88.1395,2.786,8.22,1111122 
DISL,ioos:station:DISL:CATA:1,2009-12-05T03:30:00Z,30.3085,-88.1395,2.843,8.02,1111122 
DISL,ioos:station:DISL:CATA:1,2009-12-05T04:00:00Z,30.3085,-88.1395,2.818,8.08,1111122 
DISL,ioos:station:DISL:CATA:1,2009-12-05T04:30:00Z,30.3085,-88.1395,2.815,8.16,1111122 
DISL,ioos:station:DISL:CATA:1,2009-12-05T05:00:00Z,30.3085,-88.1395,2.779,8.14,1111122 
DISL,ioos:station:DISL:CATA:1,2009-12-05T05:30:00Z,30.3085,-88.1395,2.746,8.12,1111122 
DISL,ioos:station:DISL:CATA:1,2009-12-05T06:00:00Z,30.3085,-88.1395,2.724,8.1,1111122 
DISL,ioos:station:DISL:CATA:1,2009-12-05T06:30:00Z,30.3085,-88.1395,2.696,7.95,1111122 
DISL,ioos:station:DISL:CATA:1,2009-12-05T07:00:00Z,30.3085,-88.1395,2.738,7.85,1111122 
DISL,ioos:station:DISL:CATA:1,2009-12-05T07:30:00Z,30.3085,-88.1395,2.686,7.79,1111122 
DISL,ioos:station:DISL:CATA:1,2009-12-05T08:00:00Z,30.3085,-88.1395,2.678,7.71,1111122 
DISL,ioos:station:DISL:CATA:1,2009-12-05T08:30:00Z,30.3085,-88.1395,2.694,7.73,1111122 
DISL,ioos:station:DISL:CATA:1,2009-12-05T09:00:00Z,30.3085,-88.1395,2.67,7.73,1111122 
DISL,ioos:station:DISL:CATA:1,2009-12-05T09:30:00Z,30.3085,-88.1395,2.634,7.03,1111122 
DISL,ioos:station:DISL:CATA:1,2009-12-05T10:00:00Z,30.3085,-88.1395,2.577,6.86,1111122 
DISL,ioos:station:DISL:CATA:1,2009-12-05T10:30:00Z,30.3085,-88.1395,2.523,7.22,1111122 
DISL,ioos:station:DISL:CATA:1,2009-12-05T11:00:00Z,30.3085,-88.1395,2.481,9.16,1111122 
DISL,ioos:station:DISL:CATA:1,2009-12-05T11:30:00Z,30.3085,-88.1395,2.432,9.31,1111122 
DISL,ioos:station:DISL:CATA:1,2009-12-05T12:00:00Z,30.3085,-88.1395,2.361,9.16,1111122 
DISL,ioos:station:DISL:CATA:1,2009-12-05T12:30:00Z,30.3085,-88.1395,2.315,9.09,1111122 
DISL,ioos:station:DISL:CATA:1,2009-12-05T13:00:00Z,30.3085,-88.1395,2.284,9.09,1111122 
DISL,ioos:station:DISL:CATA:1,2009-12-05T13:30:00Z,30.3085,-88.1395,2.252,9.12,1111122 
DISL,ioos:station:DISL:CATA:1,2009-12-05T14:00:00Z,30.3085,-88.1395,2.225,9.18,1111122 
DISL,ioos:station:DISL:CATA:1,2009-12-05T14:30:00Z,30.3085,-88.1395,2.203,9.24,1111122 
DISL,ioos:station:DISL:CATA:1,2009-12-05T15:00:00Z,30.3085,-88.1395,2.183,9.31,1111122 
DISL,ioos:station:DISL:CATA:1,2009-12-05T15:30:00Z,30.3085,-88.1395,2.172,9.39,1111122 
DISL,ioos:station:DISL:CATA:1,2009-12-05T16:00:00Z,30.3085,-88.1395,2.137,9.44,1111122 
DISL,ioos:station:DISL:CATA:1,2009-12-05T16:30:00Z,30.3085,-88.1395,2.13,9.47,1111122 
DISL,ioos:station:DISL:CATA:1,2009-12-05T17:00:00Z,30.3085,-88.1395,2.12,9.45,1111122 
DISL,ioos:station:DISL:CATA:1,2009-12-05T17:30:00Z,30.3085,-88.1395,2.093,9.46,1111122 
DISL,ioos:station:DISL:CATA:1,2009-12-05T18:00:00Z,30.3085,-88.1395,2.096,9.47,1111122 
DISL,ioos:station:DISL:CATA:1,2009-12-05T18:30:00Z,30.3085,-88.1395,2.108,9.47,1111122 
DISL,ioos:station:DISL:CATA:1,2009-12-05T19:00:00Z,30.3085,-88.1395,2.141,9.41,1111122 
DISL,ioos:station:DISL:CATA:1,2009-12-05T19:30:00Z,30.3085,-88.1395,2.165,9.49,1111122 
DISL,ioos:station:DISL:CATA:1,2009-12-05T20:00:00Z,30.3085,-88.1395,2.195,9.59,1111122 
DISL,ioos:station:DISL:CATA:1,2009-12-05T20:30:00Z,30.3085,-88.1395,2.216,9.88,1111122 
DISL,ioos:station:DISL:CATA:1,2009-12-05T21:00:00Z,30.3085,-88.1395,2.245,9.92,1111122 
DISL,ioos:station:DISL:CATA:1,2009-12-05T21:30:00Z,30.3085,-88.1395,2.27,9.95,1111122 
DISL,ioos:station:DISL:CATA:1,2009-12-05T22:00:00Z,30.3085,-88.1395,2.292,9.93,1111122 
DISL,ioos:station:DISL:CATA:1,2009-12-05T22:30:00Z,30.3085,-88.1395,2.315,10.26,1111122 
DISL,ioos:station:DISL:CATA:1,2009-12-05T23:00:00Z,30.3085,-88.1395,2.347,10.33,1111122 
DISL,ioos:station:DISL:CATA:1,2009-12-05T23:30:00Z,30.3085,-88.1395,2.381,10.35,1111122 
DISL,ioos:station:DISL:CATA:1,2009-12-06T00:00:00Z,30.3085,-88.1395,2.408,10.37,1111122 
DISL,ioos:station:DISL:CATA:1,2009-12-06T00:30:00Z,30.3085,-88.1395,2.437,10.34,1111122 
DISL,ioos:station:DISL:CATA:1,2009-12-06T01:00:00Z,30.3085,-88.1395,2.469,10.19,1111122 
DISL,ioos:station:DISL:CATA:1,2009-12-06T01:30:00Z,30.3085,-88.1395,2.504,9.97,1111122 
DISL,ioos:station:DISL:CATA:1,2009-12-06T02:00:00Z,30.3085,-88.1395,2.524,9.84,1111122 
DISL,ioos:station:DISL:CATA:1,2009-12-06T02:30:00Z,30.3085,-88.1395,2.571,9.91,1111122 
DISL,ioos:station:DISL:CATA:1,2009-12-06T03:00:00Z,30.3085,-88.1395,2.611,9.85,1111122 
DISL,ioos:station:DISL:CATA:1,2009-12-06T03:30:00Z,30.3085,-88.1395,2.64,9.78,1111122 
DISL,ioos:station:DISL:CATA:1,2009-12-06T04:00:00Z,30.3085,-88.1395,2.676,9.79,1111122 
DISL,ioos:station:DISL:CATA:1,2009-12-06T04:30:00Z,30.3085,-88.1395,2.687,9.29,1111122 
DISL,ioos:station:DISL:CATA:1,2009-12-06T05:00:00Z,30.3085,-88.1395,2.703,9.01,1111122 
DISL,ioos:station:DISL:CATA:1,2009-12-06T05:30:00Z,30.3085,-88.1395,2.718,8.7,1111122 
DISL,ioos:station:DISL:CATA:1,2009-12-06T06:00:00Z,30.3085,-88.1395,2.713,8.41,1111122 
DISL,ioos:station:DISL:CATA:1,2009-12-06T06:30:00Z,30.3085,-88.1395,2.711,8.29,1111122 
DISL,ioos:station:DISL:CATA:1,2009-12-06T07:00:00Z,30.3085,-88.1395,2.697,8.18,1111122 
DISL,ioos:station:DISL:CATA:1,2009-12-06T07:30:00Z,30.3085,-88.1395,2.65,8.12,1111122 
DISL,ioos:station:DISL:CATA:1,2009-12-06T08:00:00Z,30.3085,-88.1395,2.625,9.32,1111122 
DISL,ioos:station:DISL:CATA:1,2009-12-06T08:30:00Z,30.3085,-88.1395,2.622,9.71,1111122 
DISL,ioos:station:DISL:CATA:1,2009-12-06T09:00:00Z,30.3085,-88.1395,2.609,9.78,1111122 
DISL,ioos:station:DISL:CATA:1,2009-12-06T09:30:00Z,30.3085,-88.1395,2.593,9.99,1111122 
DISL,ioos:station:DISL:CATA:1,2009-12-06T10:00:00Z,30.3085,-88.1395,2.552,10.03,1111122 
DISL,ioos:station:DISL:CATA:1,2009-12-06T10:30:00Z,30.3085,-88.1395,2.512,9.91,1111122 
DISL,ioos:station:DISL:CATA:1,2009-12-06T11:00:00Z,30.3085,-88.1395,2.469,9.78,1111122 
DISL,ioos:station:DISL:CATA:1,2009-12-06T11:30:00Z,30.3085,-88.1395,2.426,9.59,1111122 
DISL,ioos:station:DISL:CATA:1,2009-12-06T12:00:00Z,30.3085,-88.1395,2.383,9.51,1111122 
DISL,ioos:station:DISL:CATA:1,2009-12-06T12:30:00Z,30.3085,-88.1395,2.338,9.53,1111122 
DISL,ioos:station:DISL:CATA:1,2009-12-06T13:00:00Z,30.3085,-88.1395,2.298,9.56,1111122 
DISL,ioos:station:DISL:CATA:1,2009-12-06T13:30:00Z,30.3085,-88.1395,2.277,9.62,1111122 
DISL,ioos:station:DISL:CATA:1,2009-12-06T14:00:00Z,30.3085,-88.1395,2.248,9.64,1111122 
DISL,ioos:station:DISL:CATA:1,2009-12-06T14:30:00Z,30.3085,-88.1395,2.21,9.63,1111122 
DISL,ioos:station:DISL:CATA:1,2009-12-06T15:00:00Z,30.3085,-88.1395,2.204,9.62,1111122 